Location: Bli��� Lhota
(48.7570°N, 14.0120°E)
Time: 05:03:59
(UTC+00:00)

SJ-6B - Pass Details

Date: 18 September 2020
Orbit: 511 x 580 km, 97.6° (Epoch: 29 October)

Event Time Altitude Azimuth Distance (km) Brightness Sun altitude
Exits shadow 17:46:36 - 119° (ESE) 1,933 5.0 -6.9°
Reaches altitude 10° 17:47:12 10° 114° (ESE) 1,735 4.7 -7.0°
Maximum altitude 17:50:01 21° 64° (ENE) 1,208 4.1 -7.4°
Drops below altitude 10° 17:52:53 10° 15° (NNE) 1,755 5.4 -7.9°
Sets 17:55:21 0° 359° (N) 2,656 6.5 -8.3°
